Simultaneous Nadir Overpasses (SNOs) Predictions

Prediction of SNOs between FY3D and METOP-C Satellite Orbit:

Table of predicted SNOs for the next 14.0 days since TLE Epoch: 7/21/2023
Index Date (FY3D) Time (FY3D) Lat,Lon (FY3D) SZA (FY3D ) Date (METOP-C) Time (METOP-C) Lat,Lon (METOP-C) SZA (METOP-C ) Distance(km) Time Diff (sec)
1 07/24/2023 19:09:54 75.43,-111.92 55.65 07/24/2023 19:11:02 75.38,-109.71 55.54 62.17 68
2 07/24/2023 20:00:36 -75.32, 55.75 124.47 07/24/2023 20:01:46 -75.30, 57.37 124.54 45.74 70
3 07/24/2023 20:51:17 75.03,-136.09 55.23 07/24/2023 20:52:31 75.02,-136.10 55.22 1.14 74
4 07/24/2023 21:42:01 -75.01, 31.28 124.78 07/24/2023 21:43:13 -75.04, 31.27 124.77 2.61 72
5 07/24/2023 22:32:48 75.01,-161.41 55.23 07/24/2023 22:33:53 75.00,-161.50 55.21 3.09 65
6 07/24/2023 23:23:33 -75.04, 5.82 124.74 07/24/2023 23:24:35 -75.01, 5.86 124.77 3.11 62
7 07/25/2023 00:14:20 75.04, 173.13 55.27 07/25/2023 00:15:14 75.02, 173.23 55.25 3.03 54
8 07/25/2023 01:05:04 -75.02, -19.49 124.75 07/25/2023 01:05:56 -75.04, -19.41 124.74 3.21 52
9 07/25/2023 01:55:50 75.01, 147.82 55.26 07/25/2023 01:56:35 75.00, 147.82 55.24 1.81 45
10 07/25/2023 02:46:34 -75.00, -44.81 124.76 07/25/2023 02:47:17 -75.01, -44.82 124.74 1.88 43
11 07/25/2023 03:37:21 74.99, 122.50 55.25 07/25/2023 03:37:57 74.98, 122.41 55.23 3.25 36
12 07/25/2023 04:28:05 -74.97, -70.13 124.76 07/25/2023 04:28:39 -74.99, -70.22 124.75 3.15 34
13 07/25/2023 05:18:52 74.97, 97.18 55.24 07/25/2023 05:19:18 75.00, 97.14 55.27 3.23 26
14 07/25/2023 06:09:37 -75.00, -95.59 124.72 07/25/2023 06:10:00 -75.01, -95.49 124.71 3.00 23
15 07/25/2023 07:00:24 75.00, 71.73 55.29 07/25/2023 07:00:40 74.98, 71.74 55.26 2.53 16
16 07/25/2023 07:51:08 -74.98,-120.90 124.73 07/25/2023 07:51:22 -74.99,-120.90 124.72 1.16 14
17 07/25/2023 08:41:55 74.98, 46.41 55.28 07/25/2023 08:42:01 75.00, 46.47 55.30 3.07 6
18 07/25/2023 09:32:39 -74.96,-146.22 124.74 07/25/2023 09:32:44 -74.97,-146.31 124.73 2.61 5
19 07/25/2023 10:23:26 74.96, 21.09 55.27 07/25/2023 10:23:23 74.98, 21.06 55.29 2.47 3
20 07/25/2023 11:14:11 -74.98,-171.68 124.69 07/25/2023 11:14:05 -74.99,-171.58 124.69 2.97 6
21 07/25/2023 12:04:58 74.98, -4.37 55.32 07/25/2023 12:04:45 74.95, -4.35 55.29 3.28 13
22 07/25/2023 12:55:42 -74.96, 163.00 124.70 07/25/2023 12:55:27 -74.97, 163.02 124.70 0.55 15
23 07/25/2023 13:46:29 74.96, -29.68 55.31 07/25/2023 13:46:06 74.98, -29.62 55.33 2.69 23
24 07/25/2023 14:37:13 -74.94, 137.69 124.71 07/25/2023 14:36:49 -74.94, 137.61 124.70 2.19 24
25 07/25/2023 15:28:00 74.94, -55.00 55.30 07/25/2023 15:27:28 74.95, -55.02 55.32 1.70 32
26 07/25/2023 16:18:45 -74.97, 112.23 124.67 07/25/2023 16:18:10 -74.97, 112.34 124.66 3.15 35
27 07/25/2023 17:09:31 74.92, -80.32 55.29 07/25/2023 17:08:50 74.93, -80.43 55.31 3.41 41
28 07/25/2023 18:00:16 -74.95, 86.91 124.67 07/25/2023 17:59:32 -74.94, 86.93 124.67 0.69 44
29 07/25/2023 18:51:03 74.95,-105.78 55.34 07/25/2023 18:50:11 74.96,-105.70 55.35 2.49 52
30 07/25/2023 19:41:47 -74.93, 61.59 124.68 07/25/2023 19:40:54 -74.92, 61.53 124.68 2.01 53
31 07/25/2023 20:32:34 74.92,-131.10 55.33 07/25/2023 20:31:33 74.93,-131.11 55.34 0.92 61
32 07/25/2023 21:23:19 -74.95, 36.14 124.64 07/25/2023 21:22:15 -74.94, 36.26 124.64 3.51 64
33 07/25/2023 22:14:05 74.90,-156.41 55.32 07/25/2023 22:12:55 74.91,-156.51 55.34 2.91 70
34 07/25/2023 23:04:50 -74.93, 10.82 124.64 07/25/2023 23:03:37 -74.92, 10.85 124.65 1.39 73
35 07/25/2023 23:55:32 74.69, 178.81 55.11 07/25/2023 23:54:21 74.69, 177.55 55.15 36.93 71
36 07/26/2023 00:46:15 -74.62, -13.69 124.95 07/26/2023 00:45:04 -74.66, -15.22 124.88 45.05 71
37 07/26/2023 01:36:55 74.28, 154.53 54.70 07/26/2023 01:35:50 74.33, 151.25 54.83 98.80 65



Historial Predications of SNOs between FY3D and METOP-C
